TimeEDT,TemperatureF,Dew PointF,Humidity,Sea Level PressureIn,VisibilityMPH,Wind Direction,Wind SpeedMPH,Gust SpeedMPH,PrecipitationIn,Events,Conditions,WindDirDegrees,DateUTC
12:53 AM,75.9,73.0,91,30.05,10.0,SW,4.6,-,N/A,,Clear,230,2013-07-22 04:53:00
1:53 AM,75.0,72.0,90,30.04,10.0,SW,5.8,-,N/A,,Scattered Clouds,220,2013-07-22 05:53:00
2:53 AM,75.0,72.0,90,30.01,10.0,SW,5.8,-,N/A,,Partly Cloudy,220,2013-07-22 06:53:00
3:53 AM,75.0,72.0,90,29.99,10.0,SW,6.9,-,N/A,,Clear,230,2013-07-22 07:53:00
4:53 AM,73.9,72.0,93,29.98,10.0,SW,9.2,-,N/A,,Clear,220,2013-07-22 08:53:00
5:53 AM,73.9,71.1,91,29.99,10.0,SW,6.9,-,N/A,,Scattered Clouds,230,2013-07-22 09:53:00
6:53 AM,73.9,71.1,91,30.01,10.0,WSW,4.6,-,N/A,,Mostly Cloudy,250,2013-07-22 10:53:00
7:53 AM,75.0,72.0,90,30.02,10.0,WSW,8.1,-,N/A,,Scattered Clouds,250,2013-07-22 11:53:00
8:53 AM,78.1,72.0,81,30.04,10.0,West,8.1,-,N/A,,Mostly Cloudy,260,2013-07-22 12:53:00
9:14 AM,78.8,71.6,78,30.05,10.0,West,12.7,-,N/A,,Mostly Cloudy,270,2013-07-22 13:14:00
9:53 AM,80.1,72.0,76,30.06,10.0,WNW,12.7,18.4,N/A,,Mostly Cloudy,290,2013-07-22 13:53:00
10:29 AM,82.4,71.6,70,30.05,10.0,WNW,12.7,-,N/A,,Scattered Clouds,290,2013-07-22 14:29:00
10:53 AM,82.9,72.0,69,30.06,10.0,West,13.8,20.7,N/A,,Scattered Clouds,270,2013-07-22 14:53:00
11:53 AM,84.9,71.1,63,30.06,10.0,West,13.8,21.9,N/A,,Mostly Cloudy,280,2013-07-22 15:53:00
12:53 PM,86.0,72.0,63,30.05,10.0,West,13.8,20.7,N/A,,Mostly Cloudy,280,2013-07-22 16:53:00
1:53 PM,88.0,72.0,59,30.02,10.0,West,11.5,19.6,N/A,,Mostly Cloudy,260,2013-07-22 17:53:00
2:53 PM,89.1,71.1,55,30.01,10.0,West,12.7,-,N/A,,Mostly Cloudy,280,2013-07-22 18:53:00
3:53 PM,90.0,72.0,55,29.98,10.0,West,13.8,-,N/A,,Mostly Cloudy,270,2013-07-22 19:53:00
4:29 PM,86.0,71.6,62,29.98,10.0,SW,10.4,-,N/A,Thunderstorm,Thunderstorm,230,2013-07-22 20:29:00
4:53 PM,82.9,72.0,69,29.98,10.0,SSW,11.5,21.9,N/A,Thunderstorm,Thunderstorm,210,2013-07-22 20:53:00
5:23 PM,80.6,69.8,70,30.00,10.0,SW,16.1,27.6,N/A,,Mostly Cloudy,230,2013-07-22 21:23:00
5:39 PM,80.6,71.6,74,29.99,10.0,SW,15.0,-,N/A,Thunderstorm,Thunderstorm,220,2013-07-22 21:39:00
5:53 PM,79.0,70.0,74,30.00,10.0,WSW,10.4,-,N/A,Thunderstorm,Thunderstorm,240,2013-07-22 21:53:00
6:09 PM,77.0,71.6,83,29.99,10.0,WSW,11.5,-,0.00,Rain,Light Rain,250,2013-07-22 22:09:00
6:53 PM,77.0,72.0,84,29.98,10.0,SW,4.6,-,0.01,,Mostly Cloudy,220,2013-07-22 22:53:00
7:53 PM,79.0,73.0,82,29.97,10.0,SSW,9.2,-,N/A,,Mostly Cloudy,200,2013-07-22 23:53:00
8:53 PM,77.0,73.0,88,29.97,10.0,SSW,6.9,-,N/A,,Scattered Clouds,200,2013-07-23 00:53:00
9:53 PM,77.0,73.0,88,29.98,10.0,SSW,8.1,-,N/A,,Scattered Clouds,210,2013-07-23 01:53:00
10:53 PM,77.0,72.0,84,29.97,10.0,SSW,8.1,-,N/A,,Scattered Clouds,210,2013-07-23 02:53:00
11:53 PM,75.9,72.0,87,29.98,10.0,SW,10.4,-,N/A,,Scattered Clouds,220,2013-07-23 03:53:00